Total_Precipitation_Accumulation
2.70 3.27 4.35 5.15 4.85 3.72 2.69 1.90 1.25 0.93 0.80 0.77 0.78 0.72 0.69 0.74 0.71 0.73 0.47 0.42 0.39 0.37 0.40 0.46 0.47 0.55 0.59 0.63 0.73 0.85 1.06 1.40 1.58 0.88 0.66 0.54 0.46 0.31 0.24 0.27 0.24 0.18 0.17
2.77 2.84 3.05 3.81 4.68 4.50 3.84 2.60 2.17 1.19 0.87 0.77 0.70 0.82 0.74 0.68 0.68 0.70 0.64 0.50 0.46 0.37 0.33 0.35 0.41 0.46 0.50 0.57 0.63 0.67 0.78 0.86 1.04 0.73 0.35 0.27 0.23 0.18 0.17 0.21 0.20 0.19 0.18
2.98 2.96 2.67 2.82 3.64 4.35 4.33 4.08 3.52 2.68 1.51 1.13 1.04 0.88 0.75 0.76 0.72 0.69 0.66 0.69 0.66 0.57 0.52 0.51 0.52 0.67 0.73 0.76 0.87 0.88 0.86 0.84 0.84 0.88 0.56 0.35 0.29 0.29 0.36 0.39 0.38 0.38 0.35
2.72 3.15 2.77 2.62 3.10 3.82 4.17 4.56 4.50 4.05 3.21 2.12 1.55 1.36 1.40 1.24 1.09 0.99 0.85 0.80 0.73 0.70 0.68 0.70 0.76 0.79 0.77 0.78 0.85 0.83 0.90 0.97 1.01 1.01 0.92 0.77 0.61 0.50 0.64 0.62 0.54 0.47 0.47
2.12 2.41 2.59 2.78 2.90 3.58 4.10 4.44 4.32 4.74 4.40 3.76 3.03 2.35 2.05 2.19 2.14 1.95 1.66 1.41 1.28 1.20 1.13 1.03 0.92 1.00 0.99 0.90 0.94 0.90 1.08 1.26 1.42 1.61 1.51 1.38 1.28 1.09 0.93 0.85 1.00 0.90 0.87
2.09 2.14 1.98 2.40 2.86 3.28 3.62 3.79 3.76 4.62 4.59 4.99 4.44 3.67 3.06 2.35 2.68 2.71 2.51 2.28 2.15 1.91 1.60 1.31 1.19 1.35 1.18 1.20 1.16 1.15 1.20 1.42 1.61 1.71 1.57 1.38 1.05 0.94 0.93 1.15 1.41 1.58 1.50
1.62 1.82 1.93 2.17 2.05 2.68 3.03 3.31 3.50 4.10 5.05 5.36 5.47 4.83 4.34 4.02 3.72 3.19 3.49 3.15 2.79 2.37 2.01 1.71 1.52 1.41 1.50 1.35 1.45 1.47 1.53 1.79 1.79 1.59 1.50 1.32 1.25 1.11 1.41 1.72 1.75 1.81 1.67
1.16 1.48 1.88 1.86 1.93 1.98 2.20 3.15 3.25 3.14 3.73 4.62 5.29 5.54 5.61 5.30 4.82 3.97 3.76 3.48 3.16 2.67 2.35 2.15 1.93 1.74 1.78 1.87 1.75 1.93 1.75 1.57 1.45 1.42 1.41 1.32 1.34 1.36 1.55 1.82 1.73 1.81 1.61
0.64 0.82 1.10 1.29 1.39 1.45 1.79 2.14 2.20 2.45 2.77 3.18 3.36 3.81 4.20 4.15 4.01 3.60 3.20 2.77 2.38 2.02 1.80 1.74 1.78 1.67 1.82 1.95 1.90 1.86 1.48 1.31 1.52 1.64 1.49 1.44 1.41 1.25 1.13 1.40 1.60 1.55 1.47
0.45 0.52 0.60 0.91 1.05 1.43 1.65 1.75 1.96 2.07 2.38 2.38 2.36 2.39 2.68 2.96 3.33 3.60 3.60 3.11 2.66 2.15 1.79 1.52 1.61 1.20 1.32 1.64 1.33 1.07 1.11 0.97 1.08 1.19 1.19 1.11 1.05 1.09 1.29 1.18 1.51 2.25 1.82
0.60 0.65 0.75 0.96 0.99 1.11 1.34 1.38 1.38 1.36 1.56 1.73 1.70 1.76 1.74 1.78 2.00 2.32 2.48 2.74 2.98 2.82 2.29 1.97 1.73 1.98 1.96 1.82 1.62 1.35 1.33 1.39 1.32 1.11 0.98 0.97 0.93 0.89 0.87 0.97 1.25 2.18 2.46
0.68 0.61 0.62 0.56 0.55 0.55 0.62 0.69 0.82 0.89 0.87 1.09 1.23 1.20 1.20 1.22 1.56 1.66 1.66 1.70 2.08 2.12 1.95 1.78 1.70 1.95 1.49 1.45 1.45 1.44 1.38 1.18 0.84 0.80 0.72 0.68 0.68 0.75 0.86 1.00 1.09 1.24 1.40
0.16 0.14 0.16 0.11 0.09 0.10 0.14 0.25 0.37 0.59 0.77 0.76 0.79 0.81 0.90 0.93 1.08 1.43 1.58 1.76 1.87 1.85 1.79 1.88 1.88 1.62 1.42 1.40 1.44 1.48 1.53 1.26 1.18 1.14 0.97 0.84 0.85 1.01 1.06 1.02 1.09 1.09 1.14
0.02 0.02 0.01 0.01 0.03 0.03 0.05 0.12 0.19 0.28 0.42 0.58 0.63 0.63 0.65 0.62 0.69 0.92 1.21 1.38 1.40 1.34 1.51 1.57 1.42 1.51 1.56 1.40 1.39 1.32 1.13 1.09 1.27 1.31 1.26 1.11 1.16 1.14 1.07 1.19 1.45 1.41 1.72
0.09 0.13 0.17 0.15 0.13 0.07 0.05 0.08 0.15 0.26 0.35 0.36 0.36 0.46 0.54 0.54 0.59 0.73 0.88 1.02 1.28 1.47 1.33 0.96 1.01 1.05 1.19 1.28 1.17 1.15 1.22 1.29 1.29 1.22 1.37 1.29 1.24 1.32 1.32 1.45 1.76 1.96 1.87
0.03 0.02 0.07 0.12 0.23 0.33 0.36 0.41 0.48 0.51 0.57 0.57 0.61 0.51 0.43 0.54 0.70 0.70 0.73 0.95 1.11 1.34 1.45 1.19 1.04 0.99 1.03 1.08 1.16 1.21 1.28 1.43 1.24 1.32 1.27 1.30 1.43 1.41 1.52 1.67 1.83 1.79 1.58
0.13 0.09 0.05 0.06 0.03 0.03 0.06 0.11 0.17 0.27 0.34 0.42 0.56 0.70 0.71 0.71 0.64 0.72 0.89 0.99 1.04 1.10 1.08 0.94 1.01 1.10 1.14 1.19 1.24 1.29 1.25 1.14 1.29 1.48 1.46 1.37 1.45 1.58 1.92 1.64 1.57 1.54 1.31
0.27 0.28 0.17 0.11 0.07 0.07 0.07 0.06 0.06 0.05 0.03 0.07 0.17 0.26 0.39 0.49 0.55 0.53 0.68 0.75 0.67 0.76 0.74 0.77 0.77 0.88 0.98 1.08 1.13 1.22 1.23 1.21 1.36 1.37 1.42 1.33 1.41 1.71 1.74 1.62 1.46 1.36 1.28
0.41 0.38 0.35 0.28 0.20 0.17 0.12 0.10 0.11 0.10 0.07 0.04 0.04 0.11 0.21 0.32 0.41 0.50 0.51 0.43 0.39 0.56 0.62 0.70 0.70 0.67 0.81 0.88 0.91 0.92 1.01 1.30 1.59 1.67 1.56 1.54 1.52 1.92 1.80 1.40 1.28 1.32 1.32
0.45 0.54 0.49 0.43 0.38 0.31 0.25 0.21 0.21 0.24 0.25 0.21 0.17 0.15 0.20 0.28 0.27 0.21 0.32 0.36 0.43 0.50 0.54 0.63 0.69 0.74 0.75 0.89 0.94 1.01 1.05 1.17 1.22 1.25 1.32 1.46 1.63 1.86 1.78 1.39 1.15 1.23 1.15
0.42 0.44 0.50 0.45 0.44 0.42 0.41 0.39 0.33 0.32 0.36 0.37 0.33 0.41 0.54 0.47 0.29 0.30 0.28 0.32 0.43 0.48 0.52 0.56 0.60 0.73 0.79 0.86 0.98 1.12 1.32 1.22 1.24 1.51 1.55 1.54 1.63 1.61 1.09 1.14 1.14 1.17 1.21
0.37 0.42 0.40 0.39 0.45 0.53 0.53 0.52 0.54 0.51 0.47 0.46 0.40 0.44 0.52 0.44 0.36 0.38 0.44 0.47 0.43 0.46 0.49 0.54 0.59 0.58 0.85 1.20 1.40 1.49 1.47 1.47 1.41 1.62 1.62 1.48 1.44 1.27 1.19 1.21 1.11 1.14 1.22
0.23 0.26 0.29 0.32 0.35 0.43 0.50 0.48 0.49 0.52 0.46 0.40 0.39 0.41 0.43 0.43 0.41 0.41 0.39 0.42 0.53 0.56 0.51 0.52 0.55 0.57 0.51 0.83 1.31 1.89 2.02 1.61 1.60 1.77 1.84 1.62 1.48 1.44 1.53 1.56 1.32 1.32 1.22
0.14 0.17 0.19 0.19 0.24 0.26 0.29 0.33 0.36 0.43 0.45 0.41 0.36 0.36 0.40 0.39 0.36 0.37 0.37 0.39 0.42 0.46 0.50 0.53 0.58 0.61 0.65 0.76 1.04 1.36 1.74 1.84 1.99 2.09 2.28 2.34 1.72 1.49 1.43 1.42 1.22 1.20 1.22
0.11 0.12 0.14 0.17 0.19 0.21 0.24 0.27 0.30 0.32 0.35 0.38 0.40 0.41 0.40 0.43 0.43 0.41 0.42 0.43 0.47 0.46 0.44 0.52 0.66 0.75 0.80 0.96 1.10 1.18 1.52 1.58 1.70 1.75 1.71 1.71 1.57 1.29 1.34 1.45 1.19 1.25 1.25
0.15 0.16 0.17 0.18 0.20 0.21 0.25 0.26 0.27 0.30 0.35 0.37 0.41 0.45 0.46 0.49 0.46 0.43 0.47 0.53 0.52 0.47 0.46 0.47 0.58 0.76 0.89 1.05 1.18 1.36 1.40 1.31 1.23 1.08 1.32 1.67 1.38 1.16 1.20 1.37 1.24 1.36 1.30